Location: Asheville, NC
(35.6000°N, 82.5500°W)
Time: 00:30:24
(UTC-04:00)

CUTE-I - Pass Details

Date: 17 March 2018
Orbit: 811 x 825 km, 98.7° (Epoch: 24 June)

Event Time Altitude Azimuth Distance (km) Brightness Sun altitude
Rises 06:43:08 0° 32° (NNE) 3,364 ? -12.0°
Reaches altitude 10° 06:46:15 10° 51° (NE) 2,425 ? -11.4°
Maximum altitude 06:49:53 18° 94° (E) 1,898 ? -10.6°
Drops below altitude 10° 06:53:29 10° 137° (SE) 2,410 ? -9.9°
Sets 06:56:33 0° 155° (SSE) 3,335 ? -9.3°
